Погода в Новом Мире

Россия / Курганская область     55°20′05″N   64°30′16″E
темп.,
°C
ветер,
м/с
пор.,
м/с
влажн.,
%
обл.,
%
осадки,
мм/ч
давл.,
гПа
погр.,
м
24 июля, сб
сб2423:00+18юз3395100 8.8 100456
02:00+17юз1193100 0.7 100318
05:00+17ююз2395100 0.9 100466
08:00+17зсз1196100 0.4 1003114
11:00+16с3395100 2.8 1004213
14:00+20ссз2285100 0.9 1004597
17:00+20с3385100 1.1 1005393
20:00+19ссв2490100 0.7 1005156
25 июля, вс
вс2523:00+17с2391100 0.9 100549
02:00+16сз339318 0.0 100642
05:00+16ссз3592100 0.0 100687
08:00+19ссз347978 0.0 1007238
11:00+22сз566444 0.9 1007902
14:00+24сз774975 0.2 10082156
17:00+20сз896427 0.3 10111260
20:00+17ссз611690 0.0 1013790
26 июля, пн
пн2623:00+13сз35780 0.0 101477
02:00+11зсз47665 0.0 1015117
05:00+9сз410735 0.0 1016202
08:00+14ссз610605 0.0 1017500
11:00+18сз794463 0.0 10172252
14:00+16сз795098 0.0 10171240
17:00+16зсз5952100 0.0 1017779
20:00+15зсз495598 0.0 1016385
27 июля, вт
вт2723:00+13зсз4960100 0.0 1017255
02:00+13з3864100 0.0 1016193
05:00+13з386597 0.0 1016198
08:00+15зюз5764100 0.0 1016286
11:00+20з685483 0.0 10141383
14:00+22з7104890 0.7 10122455
17:00+19зюз596361 1.1 1012666
20:00+15зюз498015 0.4 1012310
28 июля, ср
ср2823:00+12зюз488827 0.4 1011143
02:00+11зсз359428 0.0 101183
05:00+10сз36959 0.0 1011109
08:00+14ссз46805 0.0 1012459
11:00+18ссз555520 0.2 10121608
14:00+18ссз444430 0.1 10121833
17:00+18зсз554410 0.1 10121759
20:00+15зсз22605 0.0 101220